Time,TemperatureF,DewpointF,PressureIn,WindDirection,WindDirectionDegrees,WindSpeedMPH,WindSpeedGustMPH,Humidity,HourlyPrecipIn,Conditions,Clouds,dailyrainin,SoftwareType,DateUTC
2013-03-05 00:02:00,21.0,16.0,30.11,West,263,0.0,1.0,81,0.00,,,0.00,,2013-03-05 05:02:00,
2013-03-05 00:12:00,21.0,16.0,30.11,West,263,0.0,1.0,81,0.00,,,0.00,,2013-03-05 05:12:00,
2013-03-05 00:22:00,20.0,15.0,30.12,West,263,0.0,1.0,81,0.00,,,0.00,,2013-03-05 05:22:00,
2013-03-05 00:32:00,20.0,15.0,30.11,West,263,0.0,0.0,81,0.00,,,0.00,,2013-03-05 05:32:00,
2013-03-05 00:42:00,20.0,15.0,30.11,West,263,0.0,0.0,81,0.00,,,0.00,,2013-03-05 05:42:00,
2013-03-05 00:52:00,20.0,16.0,30.11,West,263,0.0,1.0,83,0.00,,,0.00,,2013-03-05 05:52:00,
2013-03-05 01:01:00,20.0,15.0,30.11,West,263,0.0,0.0,82,0.00,,,0.00,,2013-03-05 06:01:00,
2013-03-05 01:11:00,20.0,15.0,30.11,West,263,0.0,0.0,82,0.00,,,0.00,,2013-03-05 06:11:00,
2013-03-05 01:22:00,19.0,15.0,30.10,West,263,0.0,0.0,83,0.00,,,0.00,,2013-03-05 06:22:00,
2013-03-05 01:32:00,19.0,15.0,30.09,West,263,0.0,0.0,84,0.00,,,0.00,,2013-03-05 06:32:00,
2013-03-05 01:42:00,19.0,15.0,30.09,West,263,0.0,0.0,84,0.00,,,0.00,,2013-03-05 06:42:00,
2013-03-05 01:52:00,19.0,16.0,30.09,West,263,0.0,0.0,86,0.00,,,0.00,,2013-03-05 06:52:00,
2013-03-05 02:01:00,18.0,14.0,30.09,West,263,0.0,0.0,85,0.00,,,0.00,,2013-03-05 07:01:00,
2013-03-05 02:11:00,18.0,14.0,30.09,West,263,0.0,0.0,85,0.00,,,0.00,,2013-03-05 07:11:00,
2013-03-05 02:22:00,18.0,15.0,30.09,West,263,0.0,0.0,86,0.00,,,0.00,,2013-03-05 07:22:00,
2013-03-05 02:31:00,17.0,14.0,30.09,West,263,0.0,1.0,86,0.00,,,0.00,,2013-03-05 07:31:00,
2013-03-05 02:42:00,17.0,14.0,30.09,West,263,0.0,1.0,86,0.00,,,0.00,,2013-03-05 07:42:00,
2013-03-05 02:52:00,17.0,14.0,30.09,West,263,0.0,1.0,86,0.00,,,0.00,,2013-03-05 07:52:00,
2013-03-05 03:02:00,16.0,13.0,30.09,West,263,0.0,0.0,86,0.00,,,0.00,,2013-03-05 08:02:00,
2013-03-05 03:11:00,16.0,13.0,30.09,West,263,0.0,0.0,86,0.00,,,0.00,,2013-03-05 08:11:00,
2013-03-05 03:21:00,16.0,13.0,30.08,West,263,0.0,1.0,87,0.00,,,0.00,,2013-03-05 08:21:00,
2013-03-05 03:31:00,16.0,13.0,30.08,West,263,0.0,1.0,87,0.00,,,0.00,,2013-03-05 08:31:00,
2013-03-05 03:41:00,16.0,13.0,30.08,West,263,0.0,1.0,87,0.00,,,0.00,,2013-03-05 08:41:00,
2013-03-05 03:52:00,16.0,13.0,30.07,West,263,0.0,1.0,87,0.00,,,0.00,,2013-03-05 08:52:00,
2013-03-05 04:01:00,16.0,13.0,30.06,West,263,0.0,0.0,87,0.00,,,0.00,,2013-03-05 09:01:00,
2013-03-05 04:11:00,16.0,13.0,30.06,West,263,0.0,0.0,87,0.00,,,0.00,,2013-03-05 09:11:00,
2013-03-05 04:21:00,16.0,13.0,30.05,West,263,0.0,1.0,87,0.00,,,0.00,,2013-03-05 09:21:00,
2013-03-05 04:32:00,16.0,13.0,30.05,West,263,0.0,1.0,86,0.00,,,0.00,,2013-03-05 09:32:00,
2013-03-05 04:43:00,16.0,13.0,30.05,West,263,0.0,1.0,86,0.00,,,0.00,,2013-03-05 09:43:00,
2013-03-05 04:52:00,16.0,12.0,30.05,West,263,0.0,0.0,85,0.00,,,0.00,,2013-03-05 09:52:00,
2013-03-05 05:01:00,17.0,13.0,30.05,West,263,0.0,0.0,85,0.00,,,0.00,,2013-03-05 10:01:00,
2013-03-05 05:11:00,17.0,13.0,30.05,West,263,0.0,0.0,85,0.00,,,0.00,,2013-03-05 10:11:00,
2013-03-05 05:22:00,17.0,13.0,30.05,West,263,0.0,1.0,85,0.00,,,0.00,,2013-03-05 10:22:00,
2013-03-05 05:32:00,17.0,13.0,30.05,West,263,0.0,2.0,84,0.00,,,0.00,,2013-03-05 10:32:00,
2013-03-05 05:42:00,17.0,13.0,30.05,West,263,0.0,2.0,84,0.00,,,0.00,,2013-03-05 10:42:00,
2013-03-05 05:52:00,18.0,14.0,30.05,West,263,0.0,2.0,83,0.00,,,0.00,,2013-03-05 10:52:00,
2013-03-05 06:01:00,17.0,12.0,30.05,West,263,0.0,0.0,82,0.00,,,0.00,,2013-03-05 11:01:00,
2013-03-05 06:11:00,17.0,12.0,30.05,West,263,0.0,0.0,82,0.00,,,0.00,,2013-03-05 11:11:00,
2013-03-05 06:22:00,17.0,13.0,30.05,West,263,0.0,2.0,85,0.00,,,0.00,,2013-03-05 11:22:00,
2013-03-05 06:32:00,17.0,13.0,30.04,ESE,118,0.0,2.0,83,0.00,,,0.00,,2013-03-05 11:32:00,
2013-03-05 06:42:00,17.0,13.0,30.04,ESE,118,0.0,2.0,83,0.00,,,0.00,,2013-03-05 11:42:00,
2013-03-05 06:52:00,17.0,13.0,30.05,ESE,113,0.0,4.0,84,0.00,,,0.00,,2013-03-05 11:52:00,
2013-03-05 07:02:00,17.0,13.0,30.04,ESE,113,0.0,1.0,83,0.00,,,0.00,,2013-03-05 12:02:00,
2013-03-05 07:12:00,17.0,13.0,30.04,ESE,113,0.0,1.0,83,0.00,,,0.00,,2013-03-05 12:12:00,
2013-03-05 07:22:00,17.0,13.0,30.05,ESE,113,0.0,0.0,83,0.00,,,0.00,,2013-03-05 12:22:00,
2013-03-05 07:32:00,17.0,13.0,30.04,ESE,113,0.0,1.0,84,0.00,,,0.00,,2013-03-05 12:32:00,
2013-03-05 07:42:00,17.0,13.0,30.04,ESE,113,0.0,1.0,84,0.00,,,0.00,,2013-03-05 12:42:00,
2013-03-05 07:53:00,17.0,13.0,30.04,ESE,113,0.0,0.0,85,0.00,,,0.00,,2013-03-05 12:53:00,
2013-03-05 08:02:00,17.0,13.0,30.03,ESE,113,1.0,2.0,85,0.00,,,0.00,,2013-03-05 13:02:00,
2013-03-05 08:12:00,17.0,13.0,30.03,ESE,113,1.0,2.0,85,0.00,,,0.00,,2013-03-05 13:12:00,
2013-03-05 08:22:00,18.0,14.0,30.03,SE,138,0.0,5.0,84,0.00,,,0.00,,2013-03-05 13:22:00,
2013-03-05 08:32:00,19.0,14.0,30.03,ESE,120,4.0,9.0,82,0.00,,,0.00,,2013-03-05 13:32:00,
2013-03-05 08:42:00,19.0,14.0,30.03,ESE,120,4.0,9.0,82,0.00,,,0.00,,2013-03-05 13:42:00,
2013-03-05 08:52:00,20.0,15.0,30.03,ESE,116,5.0,9.0,82,0.00,,,0.00,,2013-03-05 13:52:00,
2013-03-05 09:02:00,21.0,16.0,30.03,ESE,121,5.0,11.0,81,0.00,,,0.00,,2013-03-05 14:02:00,
2013-03-05 09:11:00,21.0,16.0,30.03,ESE,121,5.0,11.0,81,0.00,,,0.00,,2013-03-05 14:11:00,
2013-03-05 09:22:00,23.0,18.0,30.02,South,170,7.0,17.0,81,0.00,,,0.00,,2013-03-05 14:22:00,
2013-03-05 09:32:00,24.0,19.0,30.01,SE,136,11.0,21.0,80,0.00,,,0.00,,2013-03-05 14:32:00,
2013-03-05 09:42:00,24.0,19.0,30.01,SE,136,11.0,21.0,80,0.00,,,0.00,,2013-03-05 14:42:00,
2013-03-05 09:52:00,24.0,18.0,30.01,SE,143,11.0,24.0,79,0.00,,,0.00,,2013-03-05 14:52:00,
2013-03-05 10:02:00,24.0,18.0,30.01,SSE,153,12.0,18.0,79,0.00,,,0.00,,2013-03-05 15:02:00,
2013-03-05 10:11:00,24.0,18.0,30.01,SSE,153,12.0,18.0,79,0.00,,,0.00,,2013-03-05 15:11:00,
2013-03-05 10:21:00,25.0,19.0,30.01,SW,225,5.0,14.0,79,0.00,,,0.00,,2013-03-05 15:21:00,
2013-03-05 10:32:00,25.0,19.0,30.01,SSE,148,9.0,18.0,77,0.00,,,0.00,,2013-03-05 15:32:00,
2013-03-05 10:42:00,25.0,19.0,30.01,SSE,148,9.0,18.0,77,0.00,,,0.00,,2013-03-05 15:42:00,
2013-03-05 10:52:00,26.0,19.0,30.01,SSW,211,11.0,21.0,76,0.00,,,0.00,,2013-03-05 15:52:00,
2013-03-05 11:01:00,27.0,20.0,29.99,SSE,157,6.0,17.0,74,0.00,,,0.00,,2013-03-05 16:01:00,
2013-03-05 11:11:00,27.0,20.0,29.99,SSE,157,6.0,17.0,74,0.00,,,0.00,,2013-03-05 16:11:00,
2013-03-05 11:22:00,27.0,20.0,29.98,SW,216,5.0,19.0,73,0.00,,,0.00,,2013-03-05 16:22:00,
2013-03-05 11:32:00,28.0,20.0,29.98,SSW,213,10.0,15.0,71,0.00,,,0.00,,2013-03-05 16:32:00,
2013-03-05 11:42:00,28.0,20.0,29.98,SSW,213,10.0,15.0,71,0.00,,,0.00,,2013-03-05 16:42:00,
2013-03-05 11:52:00,28.0,20.0,29.98,SSE,148,18.0,23.0,71,0.00,,,0.00,,2013-03-05 16:52:00,
2013-03-05 12:01:00,28.0,20.0,29.97,ESE,117,10.0,20.0,72,0.00,,,0.00,,2013-03-05 17:01:00,
2013-03-05 12:11:00,28.0,20.0,29.97,ESE,117,10.0,20.0,72,0.00,,,0.00,,2013-03-05 17:11:00,
2013-03-05 12:21:00,29.0,20.0,29.97,SE,130,10.0,22.0,70,0.00,,,0.00,,2013-03-05 17:21:00,
2013-03-05 12:32:00,30.0,21.0,29.96,SE,132,9.0,14.0,69,0.00,,,0.00,,2013-03-05 17:32:00,
2013-03-05 12:42:00,30.0,21.0,29.96,SE,132,9.0,14.0,69,0.00,,,0.00,,2013-03-05 17:42:00,
2013-03-05 12:53:00,31.0,21.0,29.96,South,180,10.0,15.0,67,0.00,,,0.00,,2013-03-05 17:53:00,
2013-03-05 13:02:00,31.0,21.0,29.96,SSE,160,11.0,19.0,67,0.00,,,0.00,,2013-03-05 18:02:00,
2013-03-05 13:11:00,31.0,21.0,29.96,SSE,160,11.0,19.0,67,0.00,,,0.00,,2013-03-05 18:11:00,
2013-03-05 13:22:00,31.0,21.0,29.95,SSE,154,6.0,21.0,67,0.00,,,0.00,,2013-03-05 18:22:00,
2013-03-05 13:32:00,31.0,21.0,29.95,SSE,161,9.0,22.0,66,0.00,,,0.00,,2013-03-05 18:32:00,
2013-03-05 13:42:00,31.0,21.0,29.95,SSE,161,9.0,22.0,66,0.00,,,0.00,,2013-03-05 18:42:00,
2013-03-05 13:53:00,31.0,21.0,29.94,SSE,153,9.0,17.0,67,0.00,,,0.00,,2013-03-05 18:53:00,
2013-03-05 14:01:00,31.0,22.0,29.93,East,86,4.0,14.0,68,0.00,,,0.00,,2013-03-05 19:01:00,
2013-03-05 14:11:00,31.0,22.0,29.93,East,86,4.0,14.0,68,0.00,,,0.00,,2013-03-05 19:11:00,
2013-03-05 14:21:00,32.0,22.0,29.91,SE,132,9.0,15.0,67,0.00,,,0.00,,2013-03-05 19:21:00,
2013-03-05 14:32:00,32.0,22.0,29.91,ESE,104,10.0,17.0,66,0.00,,,0.00,,2013-03-05 19:32:00,
2013-03-05 14:42:00,32.0,22.0,29.91,ESE,104,10.0,17.0,66,0.00,,,0.00,,2013-03-05 19:42:00,
2013-03-05 14:52:00,32.0,22.0,29.90,SE,130,12.0,19.0,67,0.00,,,0.00,,2013-03-05 19:52:00,
2013-03-05 15:01:00,32.0,22.0,29.89,SSE,163,10.0,14.0,66,0.00,,,0.00,,2013-03-05 20:01:00,
2013-03-05 15:11:00,33.0,23.0,29.89,SSE,147,8.0,24.0,66,0.00,,,0.00,,2013-03-05 20:11:00,
2013-03-05 15:22:00,33.0,23.0,29.89,SSE,147,8.0,24.0,66,0.00,,,0.00,,2013-03-05 20:22:00,
2013-03-05 15:32:00,33.0,23.0,29.88,ESE,118,4.0,15.0,67,0.00,,,0.00,,2013-03-05 20:32:00,
2013-03-05 15:42:00,33.0,23.0,29.88,ESE,118,4.0,15.0,67,0.00,,,0.00,,2013-03-05 20:42:00,
2013-03-05 15:52:00,33.0,23.0,29.88,SE,135,6.0,14.0,66,0.00,,,0.00,,2013-03-05 20:52:00,
2013-03-05 16:02:00,33.0,23.0,29.88,SE,146,5.0,13.0,66,0.00,,,0.00,,2013-03-05 21:02:00,
2013-03-05 16:11:00,33.0,23.0,29.88,SE,146,5.0,13.0,66,0.00,,,0.00,,2013-03-05 21:11:00,
2013-03-05 16:22:00,33.0,23.0,29.88,East,101,7.0,17.0,65,0.00,,,0.00,,2013-03-05 21:22:00,
2013-03-05 16:32:00,33.0,24.0,29.88,East,81,6.0,18.0,68,0.00,,,0.00,,2013-03-05 21:32:00,
2013-03-05 16:42:00,33.0,24.0,29.88,East,81,6.0,18.0,68,0.00,,,0.00,,2013-03-05 21:42:00,
2013-03-05 16:52:00,32.0,23.0,29.88,ESE,102,14.0,22.0,68,0.00,,,0.00,,2013-03-05 21:52:00,
2013-03-05 17:01:00,32.0,23.0,29.88,SE,124,6.0,19.0,70,0.00,,,0.00,,2013-03-05 22:01:00,
2013-03-05 17:11:00,32.0,23.0,29.88,SE,124,6.0,19.0,70,0.00,,,0.00,,2013-03-05 22:11:00,
2013-03-05 17:22:00,31.0,23.0,29.88,East,90,8.0,19.0,71,0.00,,,0.00,,2013-03-05 22:22:00,
2013-03-05 17:32:00,31.0,23.0,29.88,SE,141,13.0,22.0,73,0.00,,,0.00,,2013-03-05 22:32:00,
2013-03-05 17:42:00,31.0,23.0,29.88,SE,141,13.0,22.0,73,0.00,,,0.00,,2013-03-05 22:42:00,
2013-03-05 17:52:00,30.0,22.0,29.88,SSE,157,4.0,17.0,73,0.00,,,0.00,,2013-03-05 22:52:00,
2013-03-05 18:01:00,30.0,23.0,29.89,ESE,117,6.0,14.0,74,0.00,,,0.00,,2013-03-05 23:01:00,
2013-03-05 18:11:00,30.0,23.0,29.89,ESE,117,6.0,14.0,74,0.00,,,0.00,,2013-03-05 23:11:00,
2013-03-05 18:21:00,30.0,23.0,29.89,ESE,117,4.0,13.0,74,0.00,,,0.00,,2013-03-05 23:21:00,
2013-03-05 18:32:00,30.0,23.0,29.90,East,98,5.0,14.0,75,0.00,,,0.00,,2013-03-05 23:32:00,
2013-03-05 18:42:00,30.0,23.0,29.90,East,98,5.0,14.0,75,0.00,,,0.00,,2013-03-05 23:42:00,
2013-03-05 18:53:00,29.0,22.0,29.90,SE,132,5.0,15.0,74,0.00,,,0.00,,2013-03-05 23:53:00,
2013-03-05 19:01:00,29.0,22.0,29.91,ESE,113,2.0,10.0,75,0.00,,,0.00,,2013-03-06 00:01:00,
2013-03-05 19:11:00,29.0,22.0,29.91,ESE,113,2.0,10.0,75,0.00,,,0.00,,2013-03-06 00:11:00,
2013-03-05 19:21:00,29.0,22.0,29.92,SSE,152,10.0,15.0,75,0.00,,,0.00,,2013-03-06 00:21:00,
2013-03-05 19:32:00,29.0,22.0,29.93,SSE,148,4.0,15.0,76,0.00,,,0.00,,2013-03-06 00:32:00,
2013-03-05 19:42:00,29.0,22.0,29.93,SSE,148,4.0,15.0,76,0.00,,,0.00,,2013-03-06 00:42:00,
2013-03-05 19:52:00,29.0,22.0,29.93,SSE,147,5.0,13.0,76,0.00,,,0.00,,2013-03-06 00:52:00,
2013-03-05 20:02:00,29.0,23.0,29.93,East,99,2.0,6.0,77,0.00,,,0.00,,2013-03-06 01:02:00,
2013-03-05 20:11:00,29.0,23.0,29.93,East,99,2.0,6.0,77,0.00,,,0.00,,2013-03-06 01:11:00,
2013-03-05 20:21:00,29.0,23.0,29.93,East,99,2.0,9.0,77,0.00,,,0.00,,2013-03-06 01:21:00,
2013-03-05 20:32:00,29.0,22.0,29.93,SE,131,7.0,14.0,76,0.00,,,0.00,,2013-03-06 01:32:00,
2013-03-05 20:42:00,29.0,22.0,29.93,SE,131,7.0,14.0,76,0.00,,,0.00,,2013-03-06 01:42:00,
2013-03-05 20:52:00,29.0,23.0,29.94,East,101,5.0,9.0,77,0.00,,,0.00,,2013-03-06 01:52:00,
2013-03-05 21:01:00,29.0,23.0,29.93,SSE,156,3.0,11.0,78,0.00,,,0.00,,2013-03-06 02:01:00,
2013-03-05 21:11:00,29.0,23.0,29.93,SSE,156,3.0,11.0,78,0.00,,,0.00,,2013-03-06 02:11:00,
2013-03-05 21:22:00,29.0,23.0,29.93,East,82,6.0,14.0,78,0.00,,,0.00,,2013-03-06 02:22:00,
2013-03-05 21:32:00,29.0,23.0,29.93,ESE,115,5.0,11.0,79,0.00,,,0.00,,2013-03-06 02:32:00,
2013-03-05 21:42:00,29.0,23.0,29.93,ESE,115,5.0,11.0,79,0.00,,,0.00,,2013-03-06 02:42:00,
2013-03-05 21:52:00,29.0,23.0,29.93,SE,138,4.0,10.0,79,0.00,,,0.00,,2013-03-06 02:52:00,
2013-03-05 22:02:00,29.0,23.0,29.94,East,90,4.0,9.0,79,0.00,,,0.00,,2013-03-06 03:02:00,
2013-03-05 22:11:00,29.0,23.0,29.94,East,90,4.0,9.0,79,0.00,,,0.00,,2013-03-06 03:11:00,
2013-03-05 22:22:00,29.0,23.0,29.94,East,86,5.0,14.0,78,0.00,,,0.00,,2013-03-06 03:22:00,
2013-03-05 22:32:00,28.0,22.0,29.95,ESE,107,8.0,14.0,79,0.00,,,0.00,,2013-03-06 03:32:00,
2013-03-05 22:42:00,28.0,22.0,29.95,ESE,107,8.0,14.0,79,0.00,,,0.00,,2013-03-06 03:42:00,
2013-03-05 22:53:00,28.0,22.0,29.96,East,87,9.0,23.0,78,0.00,,,0.00,,2013-03-06 03:53:00,
2013-03-05 23:02:00,28.0,22.0,29.96,ESE,116,4.0,13.0,79,0.00,,,0.00,,2013-03-06 04:02:00,
2013-03-05 23:11:00,28.0,22.0,29.96,ESE,116,4.0,13.0,79,0.00,,,0.00,,2013-03-06 04:11:00,
2013-03-05 23:22:00,27.0,22.0,29.96,SE,124,5.0,14.0,80,0.00,,,0.00,,2013-03-06 04:22:00,
2013-03-05 23:32:00,27.0,22.0,29.97,SE,134,6.0,13.0,81,0.00,,,0.00,,2013-03-06 04:32:00,
2013-03-05 23:42:00,27.0,22.0,29.97,SE,134,6.0,13.0,81,0.00,,,0.00,,2013-03-06 04:42:00,
2013-03-05 23:52:00,27.0,22.0,29.97,ESE,117,7.0,19.0,82,0.00,,,0.00,,2013-03-06 04:52:00,